QPF
0.01 0.02 0.02 0.02 0.02 0.02 0.02 0.02 0.02 0.02 0.02 0.02 0.02 0.01 0.02 0.02 0.03 0.03 0.03 0.03 0.03 0.03 0.02 0.02 0.02 0.03 0.03 0.03 0.04 0.05 0.06 0.07 0.06 0.05 0.06 0.07 0.08 0.09 0.10 0.08 0.07 0.08 0.09
0.01 0.01 0.01 0.01 0.01 0.02 0.02 0.02 0.02 0.02 0.02 0.02 0.02 0.02 0.02 0.03 0.03 0.03 0.03 0.03 0.03 0.03 0.02 0.02 0.02 0.02 0.03 0.03 0.03 0.04 0.05 0.06 0.05 0.06 0.08 0.08 0.09 0.09 0.09 0.07 0.07 0.07 0.07
0.01 0.01 0.01 0.02 0.02 0.02 0.02 0.02 0.02 0.02 0.02 0.02 0.02 0.03 0.03 0.03 0.03 0.03 0.03 0.03 0.03 0.03 0.03 0.03 0.02 0.02 0.03 0.02 0.03 0.04 0.04 0.04 0.05 0.07 0.08 0.08 0.09 0.09 0.08 0.07 0.07 0.06 0.05
0.01 0.01 0.02 0.02 0.02 0.02 0.02 0.02 0.02 0.02 0.02 0.02 0.02 0.02 0.01 0.02 0.02 0.02 0.03 0.03 0.03 0.03 0.02 0.02 0.02 0.02 0.02 0.03 0.03 0.04 0.04 0.05 0.07 0.08 0.07 0.07 0.07 0.07 0.06 0.06 0.06 0.05 0.04
0.02 0.01 0.02 0.02 0.02 0.02 0.02 0.03 0.03 0.02 0.02 0.02 0.01 0.01 0.01 0.02 0.02 0.02 0.03 0.02 0.02 0.02 0.02 0.02 0.01 0.01 0.01 0.02 0.02 0.03 0.04 0.06 0.08 0.08 0.08 0.07 0.06 0.06 0.05 0.04 0.04 0.04 0.04
0.02 0.01 0.01 0.01 0.01 0.02 0.03 0.03 0.04 0.04 0.03 0.03 0.03 0.02 0.02 0.02 0.01 0.02 0.02 0.03 0.03 0.02 0.02 0.01 0.01 0.01 0.01 0.02 0.02 0.03 0.04 0.06 0.06 0.06 0.06 0.05 0.05 0.04 0.04 0.04 0.03 0.04 0.05
0.02 0.01 0.01 0.01 0.02 0.02 0.02 0.04 0.04 0.04 0.04 0.04 0.03 0.01 0.02 0.03 0.02 0.01 0.02 0.04 0.04 0.03 0.03 0.02 0.02 0.02 0.03 0.02 0.03 0.04 0.06 0.05 0.04 0.05 0.05 0.05 0.04 0.04 0.04 0.05 0.05 0.05 0.05
0.02 0.02 0.01 0.01 0.02 0.02 0.03 0.05 0.05 0.04 0.04 0.03 0.03 0.02 0.01 0.01 0.01 0.02 0.03 0.05 0.06 0.05 0.04 0.03 0.03 0.04 0.06 0.04 0.03 0.04 0.04 0.04 0.04 0.05 0.06 0.06 0.05 0.06 0.06 0.06 0.06 0.05 0.04
0.01 0.01 0.01 0.01 0.02 0.03 0.03 0.04 0.06 0.05 0.04 0.03 0.03 0.03 0.02 0.02 0.02 0.03 0.04 0.06 0.06 0.05 0.04 0.03 0.04 0.03 0.04 0.03 0.03 0.04 0.04 0.05 0.06 0.06 0.06 0.04 0.04 0.04 0.04 0.05 0.04 0.04 0.04
0.02 0.01 0.01 0.02 0.02 0.03 0.03 0.04 0.04 0.03 0.04 0.03 0.03 0.03 0.02 0.03 0.04 0.05 0.07 0.07 0.06 0.03 0.03 0.03 0.03 0.03 0.03 0.03 0.04 0.05 0.07 0.07 0.05 0.04 0.03 0.03 0.03 0.03 0.03 0.04 0.04 0.04 0.04
0.02 0.01 0.02 0.03 0.03 0.02 0.03 0.04 0.04 0.03 0.02 0.03 0.03 0.03 0.03 0.04 0.05 0.05 0.06 0.06 0.05 0.04 0.02 0.02 0.02 0.03 0.03 0.03 0.05 0.05 0.04 0.04 0.04 0.03 0.03 0.03 0.03 0.03 0.03 0.03 0.03 0.03 0.03
0.02 0.03 0.03 0.02 0.02 0.02 0.04 0.05 0.05 0.03 0.02 0.02 0.03 0.04 0.03 0.05 0.06 0.06 0.06 0.05 0.04 0.03 0.02 0.02 0.03 0.03 0.02 0.02 0.02 0.02 0.02 0.03 0.04 0.04 0.04 0.04 0.03 0.03 0.03 0.02 0.02 0.02 0.02
0.03 0.03 0.03 0.02 0.02 0.03 0.05 0.05 0.05 0.04 0.03 0.03 0.03 0.03 0.05 0.06 0.06 0.07 0.05 0.05 0.05 0.03 0.02 0.02 0.02 0.02 0.02 0.02 0.02 0.03 0.03 0.03 0.03 0.03 0.03 0.02 0.02 0.02 0.01 0.01 0.01 0.01 0.01
0.03 0.04 0.04 0.03 0.03 0.03 0.04 0.04 0.04 0.03 0.03 0.03 0.03 0.03 0.03 0.04 0.05 0.05 0.04 0.05 0.05 0.04 0.03 0.02 0.02 0.02 0.01 0.01 0.02 0.02 0.02 0.01 0.01 0.01 0.01 0.01 0.01 0.01 0.01 0.01 0.01 0.01 0.01
0.04 0.04 0.04 0.03 0.03 0.04 0.04 0.03 0.03 0.02 0.01 0.02 0.02 0.01 0.02 0.02 0.03 0.04 0.04 0.05 0.05 0.04 0.03 0.03 0.02 0.02 0.01 0.01 0.01 0.01 0.01 0.01 0.01 0.01 0.01 0.01 0.01 0.01 0.01 0.01 0.00 0.01 0.01
0.04 0.03 0.03 0.03 0.03 0.04 0.03 0.02 0.02 0.01 0.00 0.01 0.01 0.01 0.01 0.01 0.01 0.01 0.02 0.04 0.03 0.02 0.02 0.02 0.02 0.02 0.02 0.01 0.01 0.01 0.01 0.01 0.00 0.00 0.01 0.01 0.01 0.00 0.00 0.00 0.00 0.00 0.00
0.03 0.03 0.03 0.03 0.03 0.03 0.02 0.02 0.01 0.00 0.00 0.00 0.01 0.01 0.01 0.01 0.01 0.01 0.02 0.03 0.03 0.01 0.01 0.01 0.01 0.01 0.01 0.01 0.01 0.01 0.01 0.00 0.00 0.00 0.00 0.00 0.00 0.00 0.00 0.00 0.00 0.00 0.00
0.03 0.02 0.03 0.03 0.03 0.03 0.02 0.01 0.02 0.01 0.01 0.01 0.01 0.00 0.01 0.02 0.01 0.01 0.02 0.02 0.03 0.01 0.01 0.00 0.00 0.00 0.01 0.01 0.01 0.00 0.00 0.00 0.00 0.00 0.00 0.00 0.00 0.00 0.00 0.00 0.00 0.00 0.00
0.03 0.03 0.03 0.03 0.02 0.02 0.02 0.01 0.01 0.00 0.01 0.00 0.00 0.00 0.01 0.01 0.01 0.01 0.01 0.01 0.01 0.01 0.00 0.00 0.00 0.00 0.00 0.00 0.00 0.00 0.00 0.00 0.00 0.00 0.00 0.00 0.00 0.00 0.00 0.00 0.00 0.00 0.00
0.03 0.01 0.01 0.02 0.02 0.02 0.01 0.01 0.00 0.00 0.00 0.00 0.00 0.00 0.00 0.00 0.01 0.01 0.01 0.01 0.00 0.00 0.00 0.00 0.00 0.00 0.00 0.00 0.00 0.00 0.00 0.00 0.00 0.00 0.00 0.00 0.00 0.00 0.00 0.00 0.00 0.00 0.00
0.01 0.01 0.00 0.00 0.01 0.01 0.01 0.00 0.00 0.00 0.01 0.00 0.00 0.00 0.00 0.00 0.01 0.01 0.01 0.00 0.00 0.00 0.00 0.00 0.00 0.00 0.00 0.00 0.00 0.00 0.00 0.00 0.00 0.00 0.00 0.00 0.00 0.00 0.00 0.00 0.00 0.00 0.00
0.01 0.00 0.00 0.00 0.00 0.00 0.00 0.00 0.00 0.00 0.00 0.00 0.00 0.00 0.00 0.00 0.00 0.00 0.00 0.00 0.00 0.00 0.00 0.00 0.00 0.00 0.00 0.00 0.00 0.00 0.00 0.00 0.00 0.00 0.00 0.00 0.00 0.00 0.00 0.00 0.00 0.00 0.00
0.00 0.00 0.00 0.00 0.00 0.00 0.00 0.00 0.01 0.00 0.00 0.00 0.00 0.00 0.00 0.00 0.00 0.00 0.00 0.00 0.00 0.00 0.00 0.00 0.00 0.00 0.00 0.00 0.00 0.00 0.00 0.00 0.00 0.00 0.00 0.00 0.00 0.00 0.00 0.00 0.00 0.00 0.00
0.00 0.00 0.00 0.00 0.00 0.00 0.00 0.00 0.00 0.00 0.00 0.00 0.00 0.00 0.00 0.00 0.00 0.00 0.00 0.00 0.00 0.00 0.00 0.00 0.00 0.00 0.00 0.00 0.00 0.00 0.00 0.00 0.00 0.00 0.00 0.00 0.00 0.00 0.00 0.00 0.00 0.00 0.00
0.00 0.00 0.00 0.00 0.00 0.00 0.00 0.00 0.00 0.00 0.00 0.00 0.00 0.00 0.00 0.00 0.00 0.00 0.00 0.00 0.00 0.00 0.00 0.00 0.00 0.00 0.00 0.00 0.00 0.00 0.00 0.00 0.00 0.00 0.00 0.00 0.00 0.00 0.00 0.00 0.00 0.00 0.00
0.00 0.00 0.00 0.00 0.00 0.00 0.00 0.00 0.00 0.00 0.00 0.00 0.00 0.00 0.00 0.00 0.00 0.00 0.00 0.00 0.00 0.00 0.00 0.00 0.00 0.00 0.00 0.00 0.00 0.00 0.00 0.00 0.00 0.00 0.00 0.00 0.00 0.00 0.00 0.00 0.00 0.00 0.00
MSLP
1015.94 1016.17 1016.44 1016.75 1017.08 1017.39 1017.66 1017.87 1018.00 1018.05 1018.04 1017.98 1017.91 1017.85 1017.82 1017.84 1017.89 1017.96 1018.04 1018.10 1018.09 1017.99 1017.79 1017.48 1017.08 1016.62 1016.16 1015.78 1015.55 1015.53 1015.77 1016.29 1017.07 1018.09 1019.26 1020.51 1021.72 1022.83 1023.77 1024.51 1025.05 1025.40 1025.61
1016.29 1016.51 1016.74 1017.00 1017.28 1017.55 1017.79 1017.97 1018.09 1018.14 1018.14 1018.11 1018.07 1018.04 1018.06 1018.11 1018.21 1018.33 1018.45 1018.53 1018.53 1018.42 1018.19 1017.83 1017.37 1016.85 1016.34 1015.93 1015.67 1015.66 1015.91 1016.46 1017.29 1018.34 1019.54 1020.79 1022.00 1023.08 1023.98 1024.67 1025.15 1025.44 1025.59
1016.61 1016.81 1017.01 1017.22 1017.44 1017.66 1017.86 1018.02 1018.13 1018.19 1018.22 1018.21 1018.21 1018.22 1018.28 1018.38 1018.52 1018.69 1018.84 1018.95 1018.97 1018.88 1018.65 1018.29 1017.82 1017.30 1016.80 1016.39 1016.14 1016.14 1016.41 1016.96 1017.78 1018.81 1019.97 1021.17 1022.32 1023.33 1024.15 1024.76 1025.15 1025.37 1025.46
1016.86 1017.05 1017.22 1017.38 1017.56 1017.74 1017.91 1018.05 1018.17 1018.25 1018.30 1018.34 1018.37 1018.43 1018.52 1018.65 1018.82 1019.01 1019.19 1019.33 1019.38 1019.32 1019.13 1018.82 1018.40 1017.94 1017.48 1017.12 1016.91 1016.93 1017.20 1017.73 1018.50 1019.46 1020.53 1021.62 1022.65 1023.55 1024.26 1024.76 1025.08 1025.22 1025.25
1017.05 1017.22 1017.37 1017.50 1017.65 1017.81 1017.96 1018.11 1018.25 1018.36 1018.45 1018.52 1018.59 1018.67 1018.78 1018.92 1019.10 1019.29 1019.48 1019.63 1019.72 1019.71 1019.59 1019.36 1019.04 1018.68 1018.31 1018.03 1017.88 1017.92 1018.18 1018.66 1019.35 1020.20 1021.14 1022.08 1022.96 1023.72 1024.30 1024.70 1024.93 1025.01 1024.99
1017.16 1017.33 1017.47 1017.60 1017.74 1017.90 1018.06 1018.23 1018.39 1018.54 1018.66 1018.77 1018.86 1018.95 1019.06 1019.18 1019.34 1019.51 1019.69 1019.85 1019.97 1020.02 1019.99 1019.86 1019.67 1019.43 1019.18 1019.00 1018.91 1018.98 1019.22 1019.64 1020.22 1020.93 1021.70 1022.48 1023.20 1023.81 1024.27 1024.57 1024.72 1024.76 1024.70
1017.23 1017.41 1017.56 1017.70 1017.86 1018.03 1018.22 1018.42 1018.62 1018.80 1018.96 1019.09 1019.19 1019.27 1019.35 1019.44 1019.55 1019.69 1019.84 1020.00 1020.14 1020.25 1020.30 1020.29 1020.22 1020.12 1020.00 1019.91 1019.89 1019.97 1020.18 1020.52 1020.99 1021.55 1022.16 1022.77 1023.33 1023.80 1024.15 1024.37 1024.47 1024.47 1024.40
1017.31 1017.50 1017.67 1017.84 1018.02 1018.22 1018.45 1018.69 1018.93 1019.14 1019.33 1019.46 1019.56 1019.62 1019.66 1019.70 1019.75 1019.83 1019.95 1020.10 1020.25 1020.41 1020.54 1020.64 1020.69 1020.71 1020.70 1020.70 1020.73 1020.81 1020.98 1021.24 1021.59 1022.00 1022.46 1022.91 1023.33 1023.69 1023.95 1024.11 1024.18 1024.18 1024.11
1017.44 1017.66 1017.85 1018.05 1018.26 1018.50 1018.76 1019.04 1019.30 1019.54 1019.74 1019.87 1019.95 1019.98 1019.98 1019.97 1019.97 1020.00 1020.08 1020.21 1020.38 1020.57 1020.77 1020.95 1021.10 1021.20 1021.28 1021.33 1021.39 1021.46 1021.58 1021.76 1021.99 1022.28 1022.60 1022.93 1023.24 1023.50 1023.71 1023.84 1023.90 1023.89 1023.84
1017.66 1017.90 1018.13 1018.36 1018.60 1018.87 1019.15 1019.44 1019.73 1019.97 1020.17 1020.30 1020.37 1020.37 1020.33 1020.28 1020.24 1020.24 1020.30 1020.41 1020.58 1020.80 1021.03 1021.26 1021.47 1021.63 1021.75 1021.83 1021.89 1021.94 1022.00 1022.10 1022.24 1022.42 1022.63 1022.86 1023.09 1023.29 1023.46 1023.57 1023.63 1023.64 1023.60
1018.01 1018.27 1018.52 1018.77 1019.03 1019.31 1019.61 1019.90 1020.18 1020.43 1020.62 1020.75 1020.80 1020.79 1020.74 1020.67 1020.62 1020.60 1020.64 1020.74 1020.92 1021.14 1021.38 1021.63 1021.85 1022.03 1022.15 1022.23 1022.26 1022.27 1022.28 1022.31 1022.37 1022.47 1022.60 1022.76 1022.94 1023.10 1023.25 1023.35 1023.42 1023.43 1023.40
1018.46 1018.74 1019.01 1019.27 1019.54 1019.82 1020.11 1020.40 1020.67 1020.90 1021.09 1021.21 1021.26 1021.26 1021.21 1021.15 1021.10 1021.09 1021.12 1021.22 1021.39 1021.59 1021.82 1022.05 1022.25 1022.40 1022.50 1022.54 1022.54 1022.51 1022.47 1022.44 1022.44 1022.48 1022.57 1022.68 1022.82 1022.96 1023.09 1023.19 1023.25 1023.27 1023.25
1018.99 1019.29 1019.56 1019.83 1020.10 1020.37 1020.64 1020.90 1021.15 1021.38 1021.55 1021.67 1021.74 1021.76 1021.74 1021.71 1021.68 1021.68 1021.73 1021.82 1021.96 1022.13 1022.32 1022.50 1022.64 1022.74 1022.79 1022.78 1022.73 1022.65 1022.58 1022.51 1022.49 1022.50 1022.55 1022.65 1022.76 1022.88 1022.99 1023.07 1023.12 1023.13 1023.10
1019.55 1019.86 1020.14 1020.41 1020.67 1020.92 1021.17 1021.41 1021.63 1021.84 1022.01 1022.14 1022.23 1022.27 1022.29 1022.30 1022.30 1022.32 1022.37 1022.45 1022.55 1022.67 1022.79 1022.89 1022.96 1022.99 1022.97 1022.90 1022.81 1022.71 1022.61 1022.54 1022.50 1022.51 1022.56 1022.64 1022.74 1022.84 1022.92 1022.98 1023.01 1022.99 1022.95
1020.09 1020.40 1020.69 1020.95 1021.20 1021.43 1021.66 1021.87 1022.08 1022.27 1022.44 1022.58 1022.69 1022.77 1022.83 1022.87 1022.90 1022.93 1022.96 1023.01 1023.06 1023.10 1023.14 1023.15 1023.13 1023.08 1022.99 1022.88 1022.76 1022.65 1022.56 1022.50 1022.48 1022.50 1022.56 1022.64 1022.72 1022.80 1022.86 1022.88 1022.86 1022.82 1022.74
1020.54 1020.86 1021.16 1021.42 1021.66 1021.88 1022.09 1022.29 1022.48 1022.66 1022.82 1022.97 1023.10 1023.20 1023.28 1023.34 1023.37 1023.39 1023.40 1023.39 1023.37 1023.33 1023.27 1023.19 1023.08 1022.96 1022.82 1022.69 1022.57 1022.47 1022.40 1022.38 1022.40 1022.45 1022.53 1022.61 1022.68 1022.74 1022.75 1022.73 1022.67 1022.58 1022.47
1020.89 1021.22 1021.52 1021.79 1022.03 1022.24 1022.44 1022.63 1022.80 1022.97 1023.14 1023.28 1023.41 1023.52 1023.60 1023.65 1023.67 1023.66 1023.62 1023.55 1023.44 1023.32 1023.16 1023.00 1022.82 1022.64 1022.48 1022.34 1022.24 1022.18 1022.16 1022.19 1022.26 1022.35 1022.45 1022.53 1022.59 1022.62 1022.59 1022.52 1022.42 1022.28 1022.13
1021.13 1021.47 1021.78 1022.06 1022.30 1022.51 1022.71 1022.88 1023.05 1023.21 1023.35 1023.49 1023.61 1023.70 1023.76 1023.79 1023.77 1023.71 1023.61 1023.46 1023.28 1023.07 1022.84 1022.60 1022.38 1022.17 1022.00 1021.89 1021.82 1021.82 1021.86 1021.95 1022.07 1022.20 1022.32 1022.41 1022.46 1022.45 1022.38 1022.27 1022.11 1021.93 1021.75
1021.28 1021.63 1021.95 1022.23 1022.48 1022.70 1022.88 1023.05 1023.20 1023.34 1023.47 1023.58 1023.67 1023.73 1023.76 1023.74 1023.67 1023.56 1023.39 1023.18 1022.92 1022.65 1022.36 1022.09 1021.84 1021.64 1021.49 1021.41 1021.40 1021.46 1021.57 1021.71 1021.88 1022.04 1022.17 1022.25 1022.28 1022.24 1022.14 1021.98 1021.79 1021.58 1021.36
1021.38 1021.72 1022.04 1022.33 1022.58 1022.79 1022.97 1023.13 1023.26 1023.37 1023.47 1023.55 1023.60 1023.62 1023.60 1023.54 1023.42 1023.25 1023.03 1022.77 1022.47 1022.15 1021.85 1021.56 1021.32 1021.14 1021.03 1021.00 1021.04 1021.16 1021.32 1021.51 1021.71 1021.88 1022.02 1022.09 1022.09 1022.02 1021.89 1021.70 1021.48 1021.25 1021.01
1021.44 1021.78 1022.09 1022.36 1022.60 1022.80 1022.97 1023.10 1023.21 1023.29 1023.36 1023.39 1023.41 1023.38 1023.32 1023.22 1023.06 1022.85 1022.60 1022.31 1021.99 1021.67 1021.37 1021.10 1020.89 1020.74 1020.68 1020.70 1020.80 1020.96 1021.15 1021.37 1021.58 1021.75 1021.87 1021.93 1021.90 1021.81 1021.65 1021.45 1021.21 1020.96 1020.72
1021.48 1021.79 1022.08 1022.34 1022.55 1022.73 1022.87 1022.97 1023.04 1023.09 1023.12 1023.12 1023.09 1023.03 1022.94 1022.80 1022.62 1022.40 1022.14 1021.85 1021.55 1021.25 1020.98 1020.75 1020.58 1020.48 1020.47 1020.53 1020.66 1020.85 1021.06 1021.28 1021.48 1021.64 1021.73 1021.76 1021.71 1021.59 1021.42 1021.21 1020.97 1020.72 1020.47
1021.49 1021.76 1022.02 1022.23 1022.41 1022.55 1022.65 1022.71 1022.75 1022.76 1022.74 1022.71 1022.65 1022.57 1022.46 1022.31 1022.14 1021.92 1021.68 1021.42 1021.16 1020.90 1020.67 1020.49 1020.37 1020.32 1020.34 1020.43 1020.58 1020.77 1020.98 1021.18 1021.36 1021.49 1021.56 1021.56 1021.49 1021.36 1021.18 1020.97 1020.74 1020.49 1020.24
1021.44 1021.67 1021.87 1022.03 1022.16 1022.25 1022.30 1022.32 1022.31 1022.28 1022.24 1022.18 1022.10 1022.01 1021.89 1021.76 1021.60 1021.41 1021.21 1020.99 1020.77 1020.57 1020.40 1020.27 1020.19 1020.18 1020.22 1020.33 1020.48 1020.66 1020.85 1021.02 1021.17 1021.27 1021.31 1021.29 1021.21 1021.07 1020.89 1020.69 1020.46 1020.22 1019.97
1021.29 1021.46 1021.61 1021.71 1021.78 1021.82 1021.82 1021.79 1021.74 1021.68 1021.61 1021.53 1021.44 1021.35 1021.25 1021.13 1021.00 1020.85 1020.69 1020.52 1020.35 1020.20 1020.08 1019.99 1019.95 1019.96 1020.02 1020.13 1020.27 1020.43 1020.60 1020.75 1020.87 1020.94 1020.96 1020.92 1020.83 1020.70 1020.52 1020.32 1020.10 1019.86 1019.60
1021.01 1021.13 1021.21 1021.26 1021.27 1021.25 1021.20 1021.14 1021.05 1020.97 1020.88 1020.79 1020.71 1020.62 1020.54 1020.44 1020.34 1020.23 1020.11 1019.98 1019.86 1019.75 1019.66 1019.60 1019.58 1019.60 1019.67 1019.77 1019.91 1020.05 1020.20 1020.33 1020.43 1020.49 1020.50 1020.46 1020.37 1020.23 1020.06 1019.86 1019.62 1019.37 1019.08
Thickness
5636 5634 5632 5631 5630 5630 5629 5628 5628 5628 5628 5629 5630 5630 5631 5632 5633 5633 5634 5634 5635 5635 5636 5637 5637 5638 5639 5640 5641 5641 5639 5637 5629 5623 5620 5617 5616 5614 5612 5610 5608 5607 5605
5629 5626 5624 5623 5622 5622 5621 5620 5620 5620 5620 5621 5622 5622 5623 5624 5624 5624 5625 5625 5626 5626 5626 5627 5628 5630 5631 5632 5632 5632 5631 5630 5625 5619 5613 5610 5608 5606 5604 5602 5600 5598 5597
5621 5618 5616 5615 5614 5612 5612 5612 5611 5611 5612 5612 5613 5614 5614 5615 5615 5616 5616 5616 5616 5616 5617 5617 5619 5621 5621 5622 5623 5623 5623 5622 5619 5614 5608 5604 5601 5599 5596 5594 5593 5591 5589
5612 5609 5607 5606 5605 5604 5603 5602 5602 5602 5603 5603 5604 5605 5605 5606 5606 5606 5606 5606 5606 5606 5607 5608 5610 5611 5612 5614 5614 5615 5614 5613 5610 5606 5602 5598 5595 5592 5591 5588 5586 5585 5584
5602 5600 5599 5598 5597 5595 5594 5593 5593 5594 5594 5595 5596 5596 5597 5596 5595 5595 5597 5597 5597 5597 5598 5599 5600 5601 5603 5605 5606 5605 5605 5604 5602 5599 5595 5592 5589 5587 5585 5584 5582 5579 5578
5594 5592 5590 5589 5588 5586 5585 5584 5585 5585 5585 5586 5587 5587 5587 5586 5584 5585 5587 5588 5589 5589 5589 5590 5591 5592 5594 5595 5596 5596 5596 5596 5595 5593 5590 5588 5585 5584 5582 5581 5578 5576 5574
5585 5584 5582 5580 5578 5577 5576 5575 5575 5575 5576 5576 5577 5577 5577 5576 5576 5578 5579 5580 5581 5581 5581 5582 5584 5584 5586 5587 5587 5588 5588 5588 5589 5589 5586 5584 5582 5581 5579 5577 5576 5574 5574
5577 5575 5573 5571 5570 5568 5567 5566 5566 5566 5566 5567 5568 5568 5568 5568 5569 5570 5571 5573 5574 5574 5574 5575 5576 5577 5579 5581 5582 5581 5581 5581 5582 5583 5582 5580 5579 5578 5577 5576 5574 5573 5573
5569 5567 5565 5563 5561 5560 5559 5558 5558 5559 5559 5559 5560 5561 5561 5560 5560 5563 5565 5567 5568 5568 5569 5569 5570 5571 5572 5574 5576 5576 5575 5574 5575 5576 5577 5575 5574 5574 5573 5572 5571 5570 5569
5562 5560 5558 5556 5554 5553 5552 5551 5551 5552 5552 5553 5553 5554 5554 5554 5554 5557 5559 5562 5563 5563 5563 5563 5563 5565 5566 5568 5571 5571 5570 5570 5571 5571 5571 5570 5570 5570 5571 5571 5571 5570 5569
5556 5554 5552 5550 5548 5547 5546 5545 5546 5546 5546 5547 5547 5548 5548 5548 5549 5552 5554 5557 5559 5560 5560 5559 5558 5560 5562 5564 5566 5567 5566 5567 5568 5569 5569 5568 5568 5569 5569 5570 5570 5570 5569
5551 5548 5546 5544 5544 5542 5541 5541 5541 5541 5541 5542 5542 5543 5543 5544 5545 5547 5550 5553 5555 5557 5557 5556 5555 5557 5559 5561 5563 5564 5565 5566 5567 5568 5568 5567 5568 5568 5569 5570 5570 5571 5571
5546 5543 5541 5540 5539 5538 5538 5537 5537 5537 5538 5539 5539 5539 5540 5541 5541 5543 5546 5549 5551 5552 5552 5553 5553 5555 5557 5559 5560 5562 5564 5565 5567 5567 5567 5567 5569 5569 5570 5570 5571 5571 5572
5542 5539 5537 5536 5535 5534 5534 5534 5535 5535 5535 5537 5538 5538 5538 5538 5539 5541 5543 5545 5546 5548 5550 5550 5552 5554 5556 5558 5560 5562 5564 5566 5567 5567 5568 5569 5570 5570 5570 5571 5571 5572 5572
5539 5537 5535 5534 5532 5531 5530 5528 5530 5528 5530 5533 5535 5536 5537 5535 5533 5535 5539 5542 5544 5545 5548 5551 5553 5555 5557 5559 5562 5564 5566 5567 5568 5569 5569 5570 5570 5571 5572 5574 5574 5574 5574
5537 5536 5535 5533 5532 5531 5530 5528 5526 5527 5528 5530 5531 5532 5533 5533 5533 5535 5538 5540 5543 5544 5548 5552 5556 5559 5561 5563 5564 5566 5567 5568 5570 5570 5571 5571 5572 5573 5574 5576 5577 5577 5576
5538 5536 5536 5535 5534 5533 5533 5532 5530 5527 5527 5528 5530 5531 5532 5533 5535 5537 5539 5541 5544 5545 5548 5554 5558 5562 5564 5566 5567 5569 5569 5570 5571 5572 5572 5572 5574 5575 5576 5577 5578 5579 5579
5539 5537 5536 5536 5536 5536 5536 5536 5536 5535 5534 5532 5531 5532 5533 5535 5537 5539 5540 5542 5547 5550 5554 5558 5562 5565 5567 5568 5570 5571 5572 5572 5573 5574 5574 5575 5576 5577 5577 5579 5580 5580 5581
5541 5540 5539 5539 5539 5539 5540 5540 5542 5542 5541 5540 5539 5537 5537 5538 5540 5542 5543 5546 5552 5558 5562 5564 5567 5569 5571 5572 5573 5574 5574 5575 5576 5576 5577 5578 5579 5579 5580 5581 5582 5582 5582
5543 5540 5540 5541 5541 5542 5543 5545 5546 5547 5548 5548 5547 5547 5545 5544 5546 5549 5550 5554 5559 5564 5567 5570 5572 5573 5574 5576 5576 5577 5578 5578 5579 5579 5580 5580 5581 5582 5582 5583 5584 5584 5584
5549 5546 5542 5543 5545 5547 5549 5550 5552 5553 5554 5554 5555 5556 5554 5554 5557 5559 5561 5563 5566 5569 5572 5574 5575 5577 5578 5579 5581 5582 5582 5582 5583 5583 5583 5584 5584 5584 5585 5585 5585 5586 5587
5554 5553 5552 5551 5552 5552 5554 5556 5558 5559 5560 5561 5562 5561 5559 5561 5565 5568 5570 5571 5574 5575 5577 5578 5579 5582 5583 5584 5585 5585 5585 5586 5586 5586 5586 5586 5586 5586 5587 5587 5587 5587 5587
5560 5560 5559 5559 5559 5558 5558 5561 5563 5566 5567 5569 5570 5570 5568 5569 5572 5575 5576 5578 5579 5581 5582 5582 5583 5585 5586 5587 5587 5587 5587 5587 5588 5588 5587 5587 5587 5587 5587 5587 5587 5587 5587
5567 5566 5566 5566 5566 5566 5567 5569 5571 5573 5575 5576 5577 5578 5578 5578 5579 5581 5583 5584 5585 5585 5586 5587 5587 5588 5589 5589 5589 5589 5589 5589 5589 5589 5588 5587 5587 5587 5587 5587 5587 5587 5587
5575 5574 5574 5573 5573 5574 5575 5576 5577 5579 5580 5582 5583 5584 5585 5586 5586 5587 5588 5589 5590 5590 5591 5592 5592 5592 5592 5592 5592 5592 5591 5591 5590 5589 5588 5588 5587 5587 5586 5586 5586 5587 5587
5581 5581 5581 5581 5581 5581 5581 5582 5583 5584 5585 5587 5589 5590 5591 5592 5593 5594 5595 5595 5596 5596 5596 5597 5597 5597 5597 5596 5596 5595 5594 5593 5591 5590 5588 5587 5587 5587 5586 5586 5586 5586 5586